Location: Albuquerque Trailhead
(34.7934°N, 106.3736°W)
Time: 02:23:30
(UTC+00:00)

Cosmos 1908 - Pass Details

Date: 20 June 2021
Orbit: 509 x 530 km, 82.5° (Epoch: 27 July)

Event Time Altitude Azimuth Distance (km) Brightness Sun altitude
Rises 04:03:12 0° 359° (N) 2,656 7.6 -17.3°
Reaches altitude 10° 04:05:23 10° 4° (N) 1,760 6.5 -17.6°
Maximum altitude 04:09:10 52° 82° (E) 648 3.4 -18.1°
Enters shadow 04:09:51 45° 120° (ESE) 713 3.4 -18.2°
